Back to catalog

STARLINK-32395

AliveCommunicationsVLEO
NORAD 61679·PAYLOAD·🇺🇸 United States

Launched Oct 26, 2024 from Cape Canaveral Space Force Station

Loading…

Next Passes (next 24 hours)

TLE

FreshSource: CelesTrak SupGP

Epoch: Sep 14, 2026, 22:31 UTC

1 61679C 24193U   26257.93868056  .00046893  00000+0  13859-2 0  2579
2 61679  53.1580 291.4295 0001149  94.0936  99.2955 15.34356547    14

Track STARLINK-32395 in real time with AllMySat

Download on the App Store